Meath Environmental Platform

Observations for Trim Market St

Time AQI Temp °C Hum % Pres Pa CO μg/m³ H₂S μg/m³ NO μg/m³ NO₂ μg/m³ O₃ μg/m³ SO₂ μg/m³ PM1 μg/m³ PM2.5 μg/m³ PM10 μg/m³
Tuesday 18 August 2026
17:04 2 22.9 49 63,787 0.02 0 2.67 15.12 56.82 0 0 2.48 2.73
17:03 2 22.9 49 63,736 0.5 0 2.68 23.1 61.31 0 0 1.97 2.16
17:02 2 23 49 63,705 0 0 2.52 16.36 68.02 0 0.71 3 4.53
17:01 2 23 49 63,659 0 0 2.04 11.67 73.04 0 0 1.97 3.03
17:00 2 23 49 63,570 0 0 1.7 11.45 83.58 0 0 2.48 2.73
16:59 2 23.1 49 63,584 0 0 1.91 11.47 90.85 0 0 1.97 2.16
16:58 2 23.1 49 63,677 0 0 2.22 11.67 90.15 0 0.71 2.49 2.74
16:57 2 23.1 49 63,839 0 0 2.38 11.65 82.97 0 0 3.01 3.02
16:56 2 23.1 49 63,916 0 0 2.63 11.58 84.65 0 0 3.02 3.32
16:53 2 23.2 49 64,244 0 0 2.66 11.94 75.46 0 0 2 3
16:43 2 23.5 48 64,629 0 0 1.51 11 86.48 0 0 2.56 2.81
16:42 2 23.5 48 64,651 0 0 1.53 11.02 87.62 0 0 2.04 2.97
16:40 2 23.5 48 64,709 0 0 1.89 11.17 85.89 0 0 2.55 3.73
16:37 2 23.6 47 64,714 0 0 1.42 11.23 85.4 0 0.71 3.08 3.39
16:33 2 23.7 47 64,787 0 0 1.97 11.55 85.23 0 0 2.57 2.83
16:32 2 23.8 47 64,886 0 0 1.89 10.76 88.13 0 0.71 2.58 2.84
16:31 2 23.8 47 64,956 0 0 1.94 10.84 89.08 0 0 2.59 2.94
16:30 2 23.8 47 65,009 0 0 1.68 10.41 87.02 0 0 2.08 2.28
16:29 2 23.9 46 65,078 0 0 1.5 10.55 83.98 0 0 2.09 2.3
16:28 2 23.9 46 65,109 0 0 1.41 10.67 89.78 0 0 2.62 2.92